www.pogodaiklimat.ru

Погода и климат >> Архив погоды >> Украина >> Ильичевск


ПОГОДА в Ильичёвске

  • Прогноз погоды в Ильичёвске
  • Монитор погоды в Ильичёвске
  • Климат города

АРХИВ ПОГОДЫ в Ильичёвске

Время (UTC), дата Ветер
(напр.,м/с)
 
Видим.   Явления Облачность Т
(С)
Тd
(С)
f
(%)
Тe
(С)
Тes
(С)
Комфортность P
(гПа)
Po
(гПа)
Тmin
(С)
Tmax
(С)
R
(мм)
R24
(мм)
S
(см)
18 16.08 СЗ 1 н/о 6 баллов +26.8 +19.9 66 +33 +33 очень
душно
1015.3 1009.3
21 16.08 В 2 н/о 7 баллов +24.6 +19.9 75 +30 +30 очень
душно
1016.7 1010.7
00 17.08 В 2 10 км 6/0
[Ac und Ci fib]
+24.2 +19.9 77 +30 +30 очень
душно
1014.2 1014.0
03 17.08 СВ 3 н/о 6 баллов +23.4 +19.7 80 +30 +30 очень
душно
1015.4 1009.3
06 17.08 СВ 4 н/о 5 баллов +25.6 +17.5 61 +30 +32 душно 1016.7 1010.7
09 17.08 СВ 3 н/о 5 баллов +30.3 +16.3 43 +34 +40 очень
душно
1016.6 1010.7
12 17.08 В 2 30 км 6/3 600 м
[Cu med, cong Ac trans Ci sp]
+32.4 +16.5 39 +36 +42 очень
душно
1014.5 1015.0
15 17.08 С 2 н/о 7 баллов +32.2 +16.5 39 +35 +36 очень
душно
1015.2 1009.3
18 17.08 штиль 0 н/о 6 баллов +26.0 +18.7 64 +31 +31 очень
душно
1015.3 1009.3
21 17.08 СЗ 2 5 баллов +18.7 55 1014.5 1010.7
00 18.08 СЗ 3 10 км ясно +24.0 +17.0 65 +28 +28 душно 1014.5 1015.0
03 18.08 СЗ 3 н/о ясно +21.4 +14.1 63 +24 +24 комфорт 1016.8 1010.7
06 18.08 СЗ 3 н/о 3 балла +24.2 +14.6 55 +27 +30 жарко 1016.8 1010.7
09 18.08 СВ 3 н/о 3 балла +29.2 +17.0 48 +33 +41 очень
душно
1016.7 1010.7
12 18.08 В 4 30 км 8/0
[Ac trans Ci fib]
+31.0 +18.0 46 +35 +41 очень
душно
1015.1 1015.0
15 18.08 штиль 0 н/о 5 баллов +29.6 +18.7 52 +35 +36 очень
душно
1015.2 1009.3
18 18.08 СВ 1 н/о 4 балла +27.0 +16.6 53 +31 +31 душно 1016.7 1010.7
21 18.08 З 1 н/о ясно +24.8 +16.5 60 +28 +28 жарко 1016.7 1010.7
00 19.08 З 2 10 км ясно +22.2 +14.2 60 +25 +25 комфорт 1015.6 1016.0
03 19.08 СЗ 3 н/о 3 балла +21.2 +14.6 66 +24 +24 комфорт 1016.8 1010.7
06 19.08 СЗ 3 н/о 1 балл +25.4 +16.8 59 +29 +33 душно 1018.0 1012.0
09 19.08 СВ 2 н/о 1 балл +27.0 +18.3 59 +32 +45 очень
душно
1018.0 1012.0
12 19.08 В 2 19 км ясно +28.1 +20.2 62 +34 +46 очень
душно
1016.9 1017.0
15 19.08 Ю 2 н/о 1 балл +28.3 +18.1 54 +33 +35 очень
душно
1018.0 1012.0
18 19.08 СЗ 2 н/о 5 баллов +24.8 +14.3 52 +27 +27 жарко 1018.0 1012.0
21 19.08 СЗ 2 н/о 3 балла +23.8 +14.5 56 +26 +26 жарко 1018.1 1012.0
00 20.08 СЗ 3 10 км ясно +22.6 +14.3 59 +26 +26 жарко 1015.9 1016.0
03 20.08 СЗ 3 н/о ясно +21.4 +14.3 64 +24 +24 комфорт 1016.8 1010.7
06 20.08 СВ 3 н/о ясно +25.0 +13.5 49 +27 +32 жарко 1016.7 1010.7
09 20.08 СВ 4 н/о ясно +27.4 +12.6 40 +29 +38 жарко 1016.7 1010.7
12 20.08 В 3 30 км ясно +30.0 +13.9 37 +32 +41 жарко 1014.2 1014.0
15 20.08 СВ 1 н/о ясно +30.3 +14.0 37 +32 +35 жарко 1013.9 1008.0
18 20.08 С 2 н/о ясно +26.2 +12.6 43 +28 +28 жарко 1014.0 1008.0
21 20.08 СЗ 1 н/о ясно +24.0 +12.6 49 +26 +26 жарко 1014.0 1008.0
00 21.08 СЗ 2 10 км ясно +24.0 +13.9 53 +26 +26 жарко 1011.5 1012.0
03 21.08 СЗ 2 н/о ясно +22.8 +11.5 49 +25 +25 комфорт 1011.3 1005.3
06 21.08 СВ 4 н/о 7 баллов +25.6 +12.8 45 +27 +28 жарко 1011.3 1005.3
09 21.08 СВ 3 н/о 6 баллов +26.4 +17.5 58 +31 +35 душно 1011.3 1005.3
12 21.08 В 2 30 км 8/1 600 м
[Cu med, cong Ac cast Cc]
+27.4 +18.1 57 +32 +38 очень
душно
1007.9 1008.0
15 21.08 Ю 1 5 баллов 60 1002.7
18 21.08 СЗ 3 10 км в посл. час гроза {ливн. осадки} 8/8 630 м
[Cb cap]
+22.7 +18.1 75 +28 +28 душно 1007.1 1007.0 +28.1 0.9
21 21.08 СЗ 5 н/о в посл. час гроза н/о +21.4 +17.0 76 +25 1008.8 1002.7
00 22.08 СЗ 5 н/о гроза, ливневой дождь н/о +20.2 +17.4 84 +23 1008.8 1002.7 7.0
03 22.08 СЗ 5 н/о слабый ливневой дождь н/о +17.7 +16.7 94 +17 1008.8 1002.7
06 22.08 СЗ 7 15 км в посл. час ливневой дождь {гроза} 10/10 500 м
[Cb cap]
+17.0 +15.1 89 +16 +16 1007.8 1008.0 +16.8 15
09 22.08 СЗ 9 н/о в посл. час ливневой дождь н/о +18.0 +14.7 81 +17 1010.1 1004.0
12 22.08 СЗ 9 н/о 8 баллов +18.2 +12.9 71 +17 1010.1 1004.0 0.5
15 22.08 СЗ 9 н/о 7 баллов +19.2 +12.7 66 +20 +20 1011.4 1005.3
18 22.08 З 4 н/о 7 баллов +18.2 +10.8 62 +18 +18 1012.9 1006.7 0.5
21 22.08 З 3 н/о 6 баллов +16.4 +10.5 68 +16 +16 1012.9 1006.7
00 23.08 З 5 10 км ясно +9.4 67 -6 -6 1011.6 1012.0
03 23.08 СЗ 4 н/о 3 балла +14.2 +9.4 73 +13 +13 1014.2 1008.0
06 23.08 З 4 н/о 1 балл +17.4 +11.2 67 +17 +20 1014.2 1008.0
09 23.08 З 5 н/о 7 баллов +21.2 +10.7 51 +23 +25 комфорт 1015.4 1009.3
12 23.08 З 4 н/о 6 баллов +23.4 +8.3 38 +25 +28 комфорт 1015.4 1009.3
15 23.08 З 1 н/о слабый ливневой дождь н/о +16.8 +12.7 77 +18 1015.5 1009.3

 

Местоположение метеостанции Ильичевск (Одесская область, Украина): широта 46.40 долгота 30.70 высота над уровнем моря 52 м.

В архиве по умолчанию представлена погода в Ильичёвске за последнюю неделю. Архивные данные за месяц целиком и за предыдущие месяцы, начиная с января 2011 года, Вы можете получить, выбрав интересующий диапазон дат из раскрывающегося списка и нажав кнопку "Ввод!".

Внимание! Время в таблицах - всемирное. Для получения местного времени необходимо прибавить поправку, которая в Ильичёвске равна 2 ч.

Смотрите также архив погоды в соседних городах и на ближайших метеорологических станциях:

Погода в Одессе (Одесская область, Украина) (6 км)
Погода в Белгород-Днестровском (Одесская область, Украина) (35 км)
Погода в Раздельной (Одесская область, Украина) (69 км)
Погода в Сербке (Одесская область, Украина) (69 км)
Погода в Заставе (Одесская область, Украина) (70 км)
Погода в Очакове (Николаевская область, Украина) (70 км)
Погода в Сарате (Одесская область, Украина) (90 км)
Погода в Штефан Водэ (Молдова) (94 км)
Погода в Тирасполе (Молдова) (101 км)
Погода в Вилково (Одесская область, Украина) (108 км)

Пояснения к столбцам:

Ветер - указаны скорость ветра в м/с - средняя за 10 мин, порывы в срок и между сроками (в фигурных скобках) и направление, откуда дует ветер: С - северный, СВ - северо-восточный, В - восточный, ЮВ - юго-восточный, Ю - южный, ЮЗ - юго-западный, З - западный, СЗ - северо-западный.
Видимость - горизонтальная дальность видимости в метрах или километрах. При видимости от 1 до 10 км при отсутствии осадков обычно наблюдается дымка, при ухудшении видимости до 1 км и менее - туман. В сухую погоду видимость может ухудшаться дымом, пылью или мглою.
Явления - указаны атмосферные явления, наблюдавшиеся в срок или в последний час перед сроком; фигурными скобками обозначены явления, наблюдавшиеся между сроками (за 1-3 часа до срока); квадратными скобками обозначены град или гололедные отложения с указанием их диаметра в мм.
Облачность - указаны через наклонную черту общая и нижняя облачность в баллах и высота нижней границы облаков в метрах; квадратными скобками обозначены формы облаков: Ci - перистые, Cs - перисто-слоистые, Cc - перисто-кучевые, Ac - высококучевые, As - высокослоистые, Sc - слоисто-кучевые, Ns - слоисто-дождевые, Cu - кучевые, Cb - кучево-дождевые. Подробнее классификацию облаков см. в Атласе облаков (PDF).
T - Температура воздуха - температура, измеренная на высоте 2 м над землей.
Td - Температура точки росы - температура, при понижении до которой содержащийся в воздухе водяной пар достигнет насыщения.
f - Относительная влажность воздуха - влажноcть воздуха, измеренная на высоте 2 м над землей.
Te - Эффективная температура - температура, которую ощущает одетый по сезону человек в тени. Характеристика душности погоды. При расчете учитывается влияние влажности воздуха и скорости ветра на теплоощущения человека.
Tes - Эффективная температура на солнце - температура, которую ощущает человек, с поправкой на солнечный нагрев. Характеристика знойности погоды. Зависит от высоты солнца над горизонтом, облачности и скорости ветра. Ночью, в пасмурную погоду, а также при ветре 12 м/с и более поправка равна нулю.
P - Атмосферное давление - приведенное к уровню моря атмосферное давление.
Po - Атмосферное давление - измеренное на уровне метеостанции атмосферное давление.
Tmin - Минимальная температура - минимум температуры воздуха на высоте 2 м над землей.
Tmax - Максимальная температура - максимум температуры воздуха на высоте 2 м над землей.
R - Количество осадков - Количество выпавших осадков за период времени, мм. При наведении курсора мыши на число - период времени, за который выпало указанное количество осадков.
R24 - Количество осадков - Количество выпавших осадков за 24 часа, мм.
S - Снежный покров - Высота снежного покрова, см. При наведении курсора мыши на число - состояние снежного покрова и степень покрытия местности в баллах.